{"data":{"norad_id":51744,"intl_designator":"2022-016AG","name":"STARLINK-3452","alt_names":[],"object_type":"PAYLOAD","status":"ACTIVE","operator":null,"country":"US","launch_date":"2022-02-21","launch_site_code":"AFETR","launch_vehicle":null,"mission":null,"orbit_class":"UNKNOWN","rcs_meters":null,"size_class":null,"mass_kg":null,"dimensions":null,"purposes":["comms"],"wikipedia_slug":null,"has_3d_model":false,"image_url":null,"decayed_at":null,"tle_current":{"epoch":"2026-05-24T19:10:13.741824Z","epoch_age_seconds":102923,"freshness":"FRESH","line1":"1 51744U 22016AG  26144.79877016  .00000100  00000+0  24399-4 0  9995","line2":"2 51744  53.2140 337.4820 0001329  75.3935 284.7204 15.08840756235058","mean_motion":15.08840756,"eccentricity":0.0001329,"inclination_deg":53.214,"raan_deg":337.482,"arg_perigee_deg":75.3935,"mean_anomaly_deg":284.7204,"bstar":2.4399e-5,"rev_number":23505,"period_min":95.437506859074,"perigee_km":538.82169217892,"apogee_km":540.6604641721,"semimajor_km":6917.8780781755,"source":"CELESTRAK","updated_at":"2026-05-25T13:38:16.945479Z"}}}